TRA78W EHEH-EDDV

Flight info

Callsign TRA78W
Flight time 0h 38m
Altitude 23000
Route VELNI Y869 SUMOP L179 MISRI Z851 ROBEG
Aircraft B738/M-SDE2E3FGHIRWXY/LB1

Departure

Time 2026-05-05 10:14
Airport Eindhoven Airport (EHEH)

Arrival

Time 2026-05-05 10:52
Airport Hannover Airport (EDDV)
Time Latitude Longitude Altitude Speed Heading
2026-05-05 09:42 51.45889 5.39093 84 ft 0 kts 123°
2026-05-05 10:02 51.45890 5.39091 83 ft 1 kts 124°
2026-05-05 10:02 51.45898 5.39071 83 ft 2 kts 123°
2026-05-05 10:02 51.45906 5.39051 83 ft 2 kts 124°
2026-05-05 10:02 51.45915 5.39031 83 ft 2 kts 123°
2026-05-05 10:03 51.45923 5.39011 83 ft 2 kts 123°
2026-05-05 10:03 51.45933 5.38996 84 ft 1 kts 168°
2026-05-05 10:03 51.45944 5.38998 83 ft 1 kts 218°
2026-05-05 10:03 51.45950 5.39007 83 ft 1 kts 216°
2026-05-05 10:04 51.45951 5.39008 83 ft 0 kts 216°
2026-05-05 10:04 51.45950 5.39008 83 ft 0 kts 216°
2026-05-05 10:06 51.45934 5.38989 83 ft 4 kts 213°
2026-05-05 10:07 51.45893 5.38945 83 ft 10 kts 214°
2026-05-05 10:07 51.45824 5.38868 83 ft 9 kts 214°
2026-05-05 10:07 51.45794 5.38790 83 ft 8 kts 281°
2026-05-05 10:07 51.45825 5.38701 83 ft 10 kts 304°
2026-05-05 10:08 51.45879 5.38579 83 ft 17 kts 305°
2026-05-05 10:08 51.45952 5.38419 83 ft 17 kts 304°
2026-05-05 10:08 51.45989 5.38279 83 ft 13 kts 242°
2026-05-05 10:08 51.45915 5.38183 83 ft 14 kts 215°
2026-05-05 10:09 51.45826 5.38084 83 ft 17 kts 214°
2026-05-05 10:09 51.45714 5.37958 83 ft 22 kts 215°
2026-05-05 10:09 51.45573 5.37801 83 ft 25 kts 214°
2026-05-05 10:09 51.45427 5.37636 83 ft 25 kts 215°
2026-05-05 10:10 51.45284 5.37477 83 ft 24 kts 214°
2026-05-05 10:10 51.45144 5.37320 83 ft 25 kts 214°
2026-05-05 10:10 51.44999 5.37157 83 ft 25 kts 215°
2026-05-05 10:10 51.44853 5.36994 83 ft 25 kts 215°
2026-05-05 10:11 51.44706 5.36829 83 ft 25 kts 214°
2026-05-05 10:11 51.44561 5.36663 83 ft 25 kts 216°
2026-05-05 10:11 51.44413 5.36500 83 ft 25 kts 214°
2026-05-05 10:11 51.44265 5.36335 83 ft 25 kts 215°
2026-05-05 10:12 51.44141 5.36195 83 ft 14 kts 214°
2026-05-05 10:12 51.44062 5.36106 83 ft 13 kts 215°
2026-05-05 10:12 51.43984 5.36088 83 ft 8 kts 137°
2026-05-05 10:12 51.43980 5.36094 83 ft 0 kts 134°
2026-05-05 10:13 51.43966 5.36121 83 ft 7 kts 126°
2026-05-05 10:13 51.43940 5.36239 83 ft 14 kts 66°
2026-05-05 10:13 51.44050 5.36372 83 ft 37 kts 35°
2026-05-05 10:14 51.44452 5.36824 84 ft 102 kts 34°
2026-05-05 10:14 51.45202 5.37663 86 ft 156 kts 34°
2026-05-05 10:14 51.46060 5.38691 723 ft 154 kts 36°
2026-05-05 10:14 51.46939 5.39648 1365 ft 157 kts 32°
2026-05-05 10:15 51.47847 5.40603 1898 ft 161 kts 34°
2026-05-05 10:15 51.48809 5.41665 2243 ft 174 kts 35°
2026-05-05 10:15 51.49840 5.42833 2529 ft 191 kts 36°
2026-05-05 10:15 51.50925 5.44186 2849 ft 205 kts 44°
2026-05-05 10:16 51.51651 5.46199 3112 ft 222 kts 79°
2026-05-05 10:16 51.51496 5.48651 3746 ft 227 kts 104°
2026-05-05 10:16 51.50951 5.51028 4387 ft 229 kts 109°
2026-05-05 10:16 51.50377 5.53385 5092 ft 228 kts 108°
2026-05-05 10:17 51.49824 5.55803 5642 ft 234 kts 108°
2026-05-05 10:17 51.49330 5.58278 6246 ft 237 kts 103°
2026-05-05 10:17 51.48949 5.60940 6613 ft 252 kts 101°
2026-05-05 10:17 51.48589 5.63758 7000 ft 265 kts 99°
2026-05-05 10:18 51.48409 5.66749 7491 ft 274 kts 88°
2026-05-05 10:18 51.48588 5.69780 8167 ft 276 kts 82°
2026-05-05 10:18 51.48881 5.72817 8820 ft 279 kts 81°
2026-05-05 10:18 51.49177 5.75879 9490 ft 282 kts 82°
2026-05-05 10:19 51.49451 5.78971 10115 ft 286 kts 83°
2026-05-05 10:19 51.49723 5.82247 10488 ft 301 kts 83°
2026-05-05 10:19 51.49994 5.85654 10816 ft 317 kts 83°
2026-05-05 10:19 51.50273 5.89223 11157 ft 332 kts 83°
2026-05-05 10:20 51.50563 5.92942 11472 ft 347 kts 83°
2026-05-05 10:20 51.50869 5.96885 11851 ft 359 kts 83°
2026-05-05 10:20 51.51178 6.00867 12494 ft 363 kts 83°
2026-05-05 10:20 51.51486 6.04850 13192 ft 366 kts 83°
2026-05-05 10:21 51.51798 6.08904 13860 ft 369 kts 82°
2026-05-05 10:21 51.52111 6.12979 14541 ft 372 kts 83°
2026-05-05 10:21 51.52428 6.17127 15217 ft 376 kts 83°
2026-05-05 10:21 51.52748 6.21263 15847 ft 380 kts 82°
2026-05-05 10:22 51.53147 6.25475 16442 ft 385 kts 81°
2026-05-05 10:22 51.53611 6.29715 17040 ft 389 kts 80°
2026-05-05 10:22 51.54098 6.33961 17627 ft 393 kts 79°
2026-05-05 10:22 51.54592 6.38272 18215 ft 397 kts 80°
2026-05-05 10:23 51.55087 6.42679 18766 ft 402 kts 80°
2026-05-05 10:23 51.55576 6.47115 19335 ft 406 kts 81°
2026-05-05 10:23 51.56081 6.51588 19885 ft 410 kts 79°
2026-05-05 10:23 51.56775 6.56022 20422 ft 415 kts 72°
2026-05-05 10:24 51.57898 6.60338 20956 ft 420 kts 62°
2026-05-05 10:24 51.59403 6.64332 21488 ft 424 kts 56°
2026-05-05 10:24 51.61104 6.68221 22004 ft 428 kts 54°
2026-05-05 10:24 51.62900 6.72081 22610 ft 428 kts 53°
2026-05-05 10:25 51.64690 6.75852 22865 ft 431 kts 53°
2026-05-05 10:25 51.66506 6.79674 22889 ft 429 kts 53°
2026-05-05 10:25 51.68312 6.83499 22888 ft 427 kts 53°
2026-05-05 10:25 51.70100 6.87318 22895 ft 426 kts 53°
2026-05-05 10:26 51.71870 6.91125 22889 ft 428 kts 53°
2026-05-05 10:26 51.73630 6.94937 22893 ft 427 kts 53°
2026-05-05 10:26 51.75400 6.98790 22889 ft 427 kts 53°
2026-05-05 10:26 51.77155 7.02622 22889 ft 427 kts 53°
2026-05-05 10:27 51.78934 7.06518 22888 ft 428 kts 53°
2026-05-05 10:27 51.80682 7.10353 22893 ft 428 kts 53°
2026-05-05 10:27 51.82429 7.14196 22888 ft 427 kts 53°
2026-05-05 10:27 51.84195 7.18088 22889 ft 427 kts 53°
2026-05-05 10:28 51.85848 7.22019 22888 ft 428 kts 58°
2026-05-05 10:28 51.87354 7.26157 22895 ft 429 kts 60°
2026-05-05 10:28 51.88760 7.30372 22894 ft 429 kts 62°
2026-05-05 10:28 51.90142 7.34678 22882 ft 428 kts 63°
2026-05-05 10:29 51.91483 7.38913 22900 ft 428 kts 63°
2026-05-05 10:29 51.92837 7.43201 22890 ft 429 kts 63°
2026-05-05 10:29 51.94059 7.47619 22891 ft 428 kts 68°
2026-05-05 10:29 51.95048 7.52122 22889 ft 428 kts 72°
2026-05-05 10:30 51.95919 7.56763 22885 ft 429 kts 74°
2026-05-05 10:30 51.96723 7.61429 22891 ft 429 kts 75°
2026-05-05 10:30 51.97490 7.66057 22892 ft 429 kts 76°
2026-05-05 10:30 51.98255 7.70723 22897 ft 430 kts 76°
2026-05-05 10:31 51.99022 7.75408 22897 ft 430 kts 76°
2026-05-05 10:31 51.99789 7.80076 22889 ft 429 kts 76°
2026-05-05 10:31 52.00553 7.84708 22892 ft 430 kts 75°
2026-05-05 10:31 52.01328 7.89400 22887 ft 430 kts 75°
2026-05-05 10:32 52.02092 7.94039 22884 ft 430 kts 75°
2026-05-05 10:32 52.02864 7.98741 22891 ft 430 kts 75°
2026-05-05 10:32 52.03630 8.03407 22880 ft 431 kts 75°
2026-05-05 10:32 52.04399 8.08078 22882 ft 430 kts 75°
2026-05-05 10:33 52.05180 8.12816 22887 ft 431 kts 75°
2026-05-05 10:33 52.05942 8.17438 22886 ft 430 kts 75°
2026-05-05 10:33 52.06712 8.22124 22888 ft 430 kts 75°
2026-05-05 10:33 52.07487 8.26846 22889 ft 430 kts 75°
2026-05-05 10:34 52.08254 8.31539 22882 ft 431 kts 75°
2026-05-05 10:34 52.09011 8.36205 22879 ft 431 kts 75°
2026-05-05 10:34 52.09774 8.40916 22888 ft 424 kts 75°
2026-05-05 10:34 52.10508 8.45470 22881 ft 408 kts 75°
2026-05-05 10:35 52.11212 8.49844 22874 ft 404 kts 75°
2026-05-05 10:35 52.11923 8.54284 22643 ft 408 kts 75°
2026-05-05 10:35 52.12640 8.58766 22194 ft 405 kts 75°
2026-05-05 10:35 52.13340 8.63158 21677 ft 402 kts 75°
2026-05-05 10:36 52.14039 8.67551 21116 ft 401 kts 76°
2026-05-05 10:36 52.14728 8.71886 20577 ft 399 kts 76°
2026-05-05 10:36 52.15419 8.76249 19991 ft 397 kts 76°
2026-05-05 10:36 52.16101 8.80572 19465 ft 395 kts 76°
2026-05-05 10:37 52.16771 8.84827 18890 ft 393 kts 76°
2026-05-05 10:37 52.17442 8.89100 18347 ft 391 kts 76°
2026-05-05 10:37 52.18111 8.93382 17788 ft 388 kts 76°
2026-05-05 10:37 52.18776 8.97629 17245 ft 386 kts 76°
2026-05-05 10:38 52.19429 9.01792 16704 ft 384 kts 76°
2026-05-05 10:38 52.20085 9.05975 16146 ft 375 kts 76°
2026-05-05 10:38 52.20717 9.09993 15612 ft 367 kts 76°
2026-05-05 10:38 52.21344 9.13990 15091 ft 359 kts 76°
2026-05-05 10:39 52.21948 9.17876 14578 ft 352 kts 76°
2026-05-05 10:39 52.22532 9.21713 14077 ft 347 kts 77°
2026-05-05 10:39 52.23089 9.25542 13551 ft 350 kts 79°
2026-05-05 10:39 52.23462 9.29406 13044 ft 346 kts 84°
2026-05-05 10:40 52.23653 9.33297 12529 ft 339 kts 88°
2026-05-05 10:40 52.23738 9.37079 12038 ft 332 kts 89°
2026-05-05 10:40 52.23788 9.40858 11535 ft 338 kts 90°
2026-05-05 10:40 52.23854 9.44697 11041 ft 339 kts 89°
2026-05-05 10:41 52.23950 9.48506 10551 ft 338 kts 88°
2026-05-05 10:41 52.24059 9.52266 10237 ft 331 kts 88°
2026-05-05 10:41 52.24168 9.55930 10128 ft 318 kts 88°
2026-05-05 10:41 52.24271 9.59455 10010 ft 304 kts 88°
2026-05-05 10:42 52.24460 9.66120 9348 ft 289 kts 89°
2026-05-05 10:42 52.24548 9.69354 9004 ft 282 kts 89°
2026-05-05 10:42 52.24631 9.72468 8667 ft 276 kts 89°
2026-05-05 10:43 52.24712 9.75595 8359 ft 275 kts 89°
2026-05-05 10:43 52.24791 9.78721 8005 ft 279 kts 89°
2026-05-05 10:43 52.24871 9.81870 7675 ft 274 kts 89°
2026-05-05 10:43 52.24970 9.84901 7354 ft 269 kts 85°
2026-05-05 10:44 52.25395 9.87845 7031 ft 271 kts 65°
2026-05-05 10:44 52.26570 9.90265 6712 ft 274 kts 38°
2026-05-05 10:44 52.28106 9.92008 6481 ft 266 kts 32°
2026-05-05 10:44 52.29652 9.93611 6176 ft 265 kts 32°
2026-05-05 10:45 52.31195 9.95250 5848 ft 268 kts 33°
2026-05-05 10:45 52.32740 9.96951 5512 ft 266 kts 33°
2026-05-05 10:45 52.34247 9.98642 5200 ft 259 kts 34°
2026-05-05 10:45 52.35703 10.00286 4998 ft 248 kts 34°
2026-05-05 10:46 52.37082 10.01844 4861 ft 236 kts 34°
2026-05-05 10:46 52.38417 10.03307 4707 ft 224 kts 30°
2026-05-05 10:46 52.39823 10.04217 4548 ft 214 kts
2026-05-05 10:46 52.41270 10.04335 4320 ft 208 kts 359°
2026-05-05 10:47 52.42707 10.04320 4092 ft 202 kts 358°
2026-05-05 10:47 52.44047 10.03966 3899 ft 194 kts 339°
2026-05-05 10:47 52.45097 10.02683 3729 ft 186 kts 306°
2026-05-05 10:47 52.45590 10.00801 3557 ft 179 kts 285°
2026-05-05 10:48 52.45791 9.98800 3371 ft 173 kts 277°
2026-05-05 10:48 52.45885 9.96891 3223 ft 165 kts 275°
2026-05-05 10:48 52.45947 9.95068 3071 ft 156 kts 275°
2026-05-05 10:48 52.46004 9.93315 2982 ft 154 kts 275°
2026-05-05 10:49 52.46061 9.91534 2864 ft 159 kts 275°
2026-05-05 10:49 52.46114 9.89699 2584 ft 157 kts 275°
2026-05-05 10:49 52.46167 9.87946 2395 ft 155 kts 276°
2026-05-05 10:49 52.46222 9.86160 2159 ft 157 kts 276°
2026-05-05 10:50 52.46274 9.84380 1946 ft 158 kts 276°
2026-05-05 10:50 52.46326 9.82598 1730 ft 157 kts 276°
2026-05-05 10:50 52.46381 9.80780 1509 ft 158 kts 276°
2026-05-05 10:50 52.46432 9.79020 1287 ft 153 kts 275°
2026-05-05 10:51 52.46483 9.77256 1128 ft 153 kts 276°
2026-05-05 10:51 52.46545 9.75476 860 ft 155 kts 276°
2026-05-05 10:51 52.46582 9.73742 645 ft 149 kts 274°
2026-05-05 10:51 52.46630 9.72049 441 ft 147 kts 274°
2026-05-05 10:52 52.46679 9.70402 256 ft 144 kts 275°
2026-05-05 10:52 52.46725 9.68790 186 ft 124 kts 275°
2026-05-05 10:52 52.46760 9.67739 182 ft 67 kts 273°
2026-05-05 10:52 52.46745 9.67119 176 ft 39 kts 255°
2026-05-05 10:53 52.46697 9.66831 172 ft 22 kts 255°
2026-05-05 10:53 52.46679 9.66733 172 ft 0 kts 247°
2026-05-05 10:54 52.46679 9.66732 172 ft 1 kts 247°
2026-05-05 10:54 52.46659 9.66687 172 ft 8 kts 219°
2026-05-05 10:55 52.46581 9.66694 172 ft 12 kts 142°
2026-05-05 10:55 52.46556 9.66819 172 ft 11 kts 92°
2026-05-05 10:55 52.46553 9.66963 174 ft 15 kts 92°
2026-05-05 10:55 52.46548 9.67167 175 ft 20 kts 93°
2026-05-05 10:56 52.46541 9.67422 179 ft 24 kts 94°
2026-05-05 10:56 52.46532 9.67722 182 ft 27 kts 92°
2026-05-05 10:56 52.46524 9.68026 185 ft 21 kts 92°
2026-05-05 10:56 52.46468 9.68236 185 ft 21 kts 143°
2026-05-05 10:57 52.46349 9.68386 181 ft 22 kts 142°
2026-05-05 10:57 52.46222 9.68545 175 ft 23 kts 143°
2026-05-05 10:57 52.46086 9.68716 167 ft 26 kts 142°
2026-05-05 10:57 52.45937 9.68903 161 ft 25 kts 142°
2026-05-05 10:58 52.45817 9.69054 161 ft 15 kts 143°
2026-05-05 10:58 52.45766 9.69171 166 ft 12 kts 99°
2026-05-05 10:58 52.45761 9.69282 170 ft 9 kts 92°
2026-05-05 10:58 52.45752 9.69428 174 ft 17 kts 113°
2026-05-05 10:59 52.45752 9.69545 177 ft 11 kts 47°
2026-05-05 10:59 52.45772 9.69585 178 ft 0 kts 52°